Weather History for Burlington Piers, ON

Change the Weather History Date:

Sunday, October 21, 2012

  Actual Average Record
Temperature  
Mean Temperature 54 °F -  
Max Temperature 60 °F - - ()
Min Temperature 47 °F - - ()
Degree Days  
Heating Degree Days 12    
Growing Degree Days 4 (Base 50)    
Moisture  
Dew Point 44 °F    
Average Humidity 74    
Maximum Humidity 89    
Minimum Humidity 50    
Precipitation  
Precipitation 0.00 in - - ()
Sea Level Pressure  
Sea Level Pressure 29.98 in    
Wind  
Wind Speed 7 mph ()    
Max Wind Speed 12 mph    
Max Gust Speed 20 mph    
T = Trace of Precipitation, MM = Missing Value Source: Averaged Metar Reports

Daily Weather History Graph

Daily Weather History Graph

Search for Another Location

Airport:

Trip Planner

Search our weather history database for the weather conditions in past years. The results will help you decide how hot, cold, wet, or windy it might be!

Date:

Astronomy

Oct. 21, 2012 Rise Set
Actual Time 7:40 AM EDT 6:25 PM EDT
Civil Twilight 7:11 AM EDT 6:54 PM EDT
Nautical Twilight 6:38 AM EDT 7:27 PM EDT
Astronomical Twilight 6:05 AM EDT 8:00 PM EDT
Moon 2:04 PM EDT (10/21) No Moon Set
Length of Visible Light 11h 42m
Length of Day
10h 44m
Waxing Crescent, 45% of the Moon is Illuminated
Oct 21
Waxing Crescent
Oct 21
First Quarter
Oct 29
Full
Nov 6
Last Quarter
Nov 13
New

Hourly Weather History & Observations

Time (EDT) Temp. Dew Point Humidity Pressure Visibility Wind Dir Wind Speed Gust Speed Precip Events Conditions
12:00 AM 48.4 °F 44.1 °F 85% 29.82 in - WSW 8.1 mph - N/A   Unknown
1:00 AM 49.1 °F 45.1 °F 86% 29.84 in - WSW 6.9 mph - N/A   Unknown
2:00 AM 47 °F 44 °F 84% 29.86 in - WNW 10.4 mph - -  
2:00 AM 47.3 °F 43.7 °F 87% 29.86 in - WNW 10.4 mph - N/A   Unknown
3:00 AM 48.7 °F 45.3 °F 88% 29.88 in - WSW 6.9 mph - N/A   Unknown
4:00 AM 47.7 °F 44.4 °F 89% 29.90 in - WSW 4.6 mph - N/A   Unknown
5:00 AM 47.8 °F 44.2 °F 87% 29.92 in - WSW 6.9 mph - N/A   Unknown
6:00 AM 47.5 °F 43.5 °F 86% 29.94 in - WSW 8.1 mph - N/A   Unknown
7:00 AM 47.1 °F 43.9 °F 88% 29.95 in - WSW 9.2 mph - N/A   Unknown
8:00 AM 48 °F 45 °F 84% 29.97 in - WSW 9.2 mph - -  
8:00 AM 48.4 °F 44.8 °F 87% 29.97 in - WSW 9.2 mph - N/A   Unknown
9:00 AM 49.3 °F 45.0 °F 85% 29.99 in - WSW 10.4 mph - N/A   Unknown
10:00 AM 51.1 °F 46.0 °F 83% 30.01 in - WSW 6.9 mph - N/A   Unknown
11:00 AM 52.7 °F 46.0 °F 78% 30.01 in - SW 11.5 mph - N/A   Unknown
12:00 PM 54.5 °F 46.0 °F 73% 30.02 in - SW 11.5 mph 17.3 mph N/A   Unknown
1:00 PM 56.8 °F 45.7 °F 66% 30.01 in - SW 9.2 mph - N/A   Unknown
2:00 PM 58 °F 44 °F 50% 30.01 in - WSW 10.4 mph - -  
2:00 PM 58.5 °F 44.4 °F 60% 30.01 in - WSW 10.4 mph - N/A   Unknown
3:00 PM 59.4 °F 41.4 °F 51% 30.01 in - WSW 11.5 mph 19.6 mph N/A   Unknown
5:00 PM 60.3 °F 41.7 °F 50% 30.03 in - West 6.9 mph - N/A   Unknown
6:00 PM 58.8 °F 42.1 °F 54% 30.04 in - West 8.1 mph - N/A   Unknown
7:00 PM 56.5 °F 42.8 °F 60% 30.05 in - West 4.6 mph - N/A   Unknown
8:00 PM 55 °F 43 °F 54% 30.06 in - WSW 3.5 mph - -  
8:00 PM 55.2 °F 43.0 °F 63% 30.06 in - WSW 3.5 mph - N/A   Unknown
9:00 PM 54.0 °F 44.2 °F 70% 30.08 in - SW 3.5 mph - N/A   Unknown
10:00 PM 52.3 °F 43.7 °F 72% 30.09 in - WSW 2.3 mph - N/A   Unknown
11:00 PM 50.9 °F 42.8 °F 74% 30.08 in - WSW 2.3 mph - N/A   Unknown